English version Home page |
Updated on June 11, 2016 |
|
軌道要素Epoch 2012 Feb. 3.0 TT = JDT 2455960.5 T 2012 Feb. 11.73453 TT Kobayashi q 1.0304945 (2000.0) P Q n 0.14940287 Peri. 172.60294 +0.98510219 -0.09938139 a 3.5174675 Node 195.39704 +0.11782875 +0.98449970 e 0.7070351 Incl. 31.91075 +0.12525995 -0.14451185 P 6.60 From 930 observations 1998 Nov. 22-2013 Apr. 1, mean residual 0".9. Nongravitational parameters A1 = +0.42, A2 = -0.0985.
|
星図
|
光度変化m1 = 8.7 + 5 logΔ + 18.5 log r [ ,0] ( 〜2012年 2月11日) m1 = 8.8 + 5 logΔ + 15.0 log r [0, ] (2012年 2月11日〜 )
|
軌道要素はM.P.E.C. 2015-M77に掲載されたものです。
|